#timestamp,LO_Frequency,Hit 
1498744815.7,286046957.6,N
1498744835.5,286046959.0,N
1498744855.3,286046956.8,N
1498744875.2,286046955.2,N
1498744895.9,286046955.9,N
1498744915.7,286046955.1,N
1498744935.6,286046953.4,N
1498744955.4,286046953.8,N
1498744975.2,286046952.2,N
1498744995.1,286046954.3,N
1498744996.0,286046954.3,N
1498745015.8,286046951.9,N
1498745035.6,286046953.1,N
1498745055.7,286046955.9,N
1498745075.5,286046955.1,N
1498745095.4,286046955.8,N
1498745115.2,286046955.6,N
1498745135.0,286046956.2,N
1498745135.9,286046956.2,N
1498745155.8,286046953.6,N
1498745175.6,286046951.3,N
1498745195.4,286046953.2,N
1498745215.3,286046952.8,N
1498745235.1,286046951.7,N
1498745236.0,286046951.7,N
1498745255.8,286046952.3,N
1498745275.6,286046953.1,N
1498745295.5,286046950.3,N
1498745315.3,286046951.2,N
1498745335.1,286046951.4,N
1498745355.9,286046950.6,N
1498745375.7,286046948.7,N
1498745395.5,286046945.9,N
1498745415.4,286046943.8,N
1498745435.2,286046945.5,N
1498745455.0,286046948.0,N
1498745455.9,286046948.0,N
1498745475.8,286046950.0,N
1498745495.6,286046948.7,N
1498745515.4,286046949.3,N
1498745535.3,286046948.8,N
1498745555.1,286046949.4,N
1498745556.0,286046949.4,N
1498745575.8,286046947.7,N
1498745595.6,286046946.2,N
1498745615.5,286046945.8,N
1498745635.3,286046947.8,N
1498745655.1,286046946.1,N
1498745675.9,286046944.1,N
1498745695.7,286046945.5,N
1498745715.5,286046949.4,N
1498745735.4,286046948.8,N
1498745755.2,286046947.6,N
1498745775.0,286046945.8,N
1498745775.9,286046945.8,N
1498745795.8,286046945.9,N
1498745815.6,286046945.6,N
1498745835.4,286046947.8,N
1498745855.2,286046947.7,N
1498745875.1,286046948.2,N
1498745876.0,286046948.2,N
1498745895.8,286046948.0,N
1498745915.6,286046945.9,N
1498745935.5,286046944.1,N
1498745955.3,286046946.6,N
1498745975.1,286046945.8,N
1498745995.9,286046944.1,N
1498746015.7,286046942.3,N
1498746035.5,286046943.0,N
1498746055.4,286046945.1,N
1498746075.2,286046945.0,N
1498746095.0,286046942.1,N
1498746095.9,286046942.1,N
1498746115.8,286046943.9,N
1498746135.6,286046945.6,N
1498746155.4,286046947.7,N
1498746175.2,286046945.5,N
1498746195.1,286046947.8,N
1498746196.0,286046947.8,N
1498746215.8,286046947.3,N
1498746235.6,286046948.3,N
1498746255.5,286046942.7,N
1498746275.3,286046941.2,N
1498746295.1,286046941.0,N
1498746315.9,286046939.6,N
1498746335.7,286046940.3,N
1498746355.5,286046939.0,N
1498746375.4,286046941.4,N
1498746395.2,286046942.0,N
1498746415.0,286046938.9,N
1498746415.9,286046938.9,N
1498746435.8,286046943.4,N
1498746455.6,286046942.7,N
1498746475.4,286046940.6,N
1498746495.3,286046941.5,N
1498746515.1,286046941.6,N
1498746516.0,286046941.6,N
1498746535.8,286046938.9,N
1498746555.7,286046940.8,N
1498746575.5,286046941.7,N
1498746595.3,286046939.1,N
1498746615.1,286046941.1,N
1498746635.9,286046940.9,N
1498746655.7,286046943.0,N
1498746675.5,286046942.5,N
1498746695.4,286046942.1,N
1498746715.2,286046945.1,N
1498746735.0,286046942.6,N
1498746735.9,286046942.6,N
1498746755.8,286046943.1,N
1498746775.6,286046941.3,N
1498746795.4,286046939.2,N
1498746815.3,286046940.3,N
1498746835.1,286046937.7,N
1498746836.0,286046937.7,N
1498746855.8,286046938.7,N
1498746875.7,286046936.0,N
1498746895.5,286046935.7,N
1498746915.3,286046937.2,N
1498746935.1,286046935.3,N
1498746955.9,286046933.2,N
1498746975.7,286046932.4,N
1498746995.5,286046931.8,N
1498747015.4,286046927.7,N
1498747035.2,286046928.8,N
1498747055.0,286046926.8,N
1498747055.9,286046926.8,N
1498747075.8,286046926.1,N
1498747095.6,286046928.9,N
1498747115.4,286046926.1,N
1498747135.3,286046929.2,N
1498747155.1,286046928.4,N
1498747156.0,286046928.4,N
1498747175.8,286046932.0,N
1498747195.7,286046933.0,N
1498747215.5,286046934.4,N
1498747235.3,286046935.0,N
1498747255.2,286046936.9,N
1498747275.9,286046935.5,N
1498747295.7,286046932.8,N
1498747315.5,286046933.4,N
1498747335.4,286046933.2,N
1498747355.2,286046933.6,N
1498747375.0,286046931.6,N
1498747375.9,286046931.6,N
1498747395.8,286046931.1,N
1498747415.6,286046931.8,N
1498747435.4,286046932.3,N
1498747455.3,286046929.6,N
1498747475.1,286046930.7,N
1498747476.0,286046930.7,N
1498747495.8,286046928.2,N
1498747515.7,286046927.7,N
1498747535.5,286046927.9,N
1498747555.3,286046928.0,N
1498747575.1,286046924.7,N
1498747595.9,286046926.7,N
1498747615.7,286046929.1,N
1498747635.5,286046926.2,N
1498747655.4,286046929.0,N
1498747675.2,286046927.2,N
1498747695.0,286046924.6,N
1498747695.9,286046924.6,N
1498747715.8,286046923.5,N
1498747735.6,286046922.1,N
1498747755.4,286046921.8,N
1498747775.3,286046923.9,N
1498747795.1,286046922.9,N
1498747796.0,286046922.9,N
1498747815.8,286046925.5,N
1498747835.7,286046924.7,N
1498747855.5,286046929.2,N
1498747875.3,286046930.5,N
1498747895.1,286046931.3,N
1498747915.9,286046929.6,N
1498747935.7,286046927.0,N
1498747955.5,286046925.6,N
1498747975.4,286046923.2,N
1498747995.2,286046923.7,N
1498748015.0,286046922.3,N
1498748015.9,286046922.3,N
1498748035.8,286046921.5,N
1498748055.6,286046926.0,N
1498748075.4,286046924.6,N
1498748095.3,286046926.7,N
1498748115.1,286046930.7,N
1498748116.0,286046930.7,N
1498748135.8,286046927.7,N
1498748155.7,286046927.9,N
1498748175.5,286046927.0,N
1498748195.3,286046927.3,N
1498748215.2,286046926.5,N
1498748235.9,286046927.1,N
1498748255.7,286046924.9,N
1498748275.5,286046926.5,N
1498748295.4,286046928.4,N
1498748315.2,286046927.0,N
1498748335.0,286046928.5,N
1498748335.9,286046928.5,N
1498748355.8,286046929.2,N
1498748375.6,286046927.6,N
1498748395.4,286046925.9,N
